EW9931 Weather Reports


Display with metric or nautical units.
time (UTC)temp
F
wind
direction
speed
MPH
gust
MPH
rain 1hr
in
rain 24hr
in
rain mn
in
humidity
%
barometer
mb
20210723181651 69 250 2.0 0.0 0.00 0.00 0.00 40 1008.1
20210723180136 69 256 2.0 0.0 0.00 0.00 0.00 41 1007.4
20210723174653 70 97 0.0 0.0 0.00 0.00 0.00 41 1007.3
20210723173124 70 229 1.0 0.0 0.00 0.00 0.00 42 1007.4
20210723171637 69 213 0.0 0.0 0.00 0.00 0.00 43 1007.7
20210723170203 68 210 0.0 0.0 0.00 0.00 0.00 44 1007.6
20210723164709 67 176 0.0 0.0 0.00 0.00 0.00 44 1007.5
20210723163151 67 176 0.0 0.0 0.00 0.00 0.00 46 1007.6
20210723161629 67 176 0.0 0.0 0.00 0.00 0.00 47 1008.0
20210723160116 66 178 0.0 0.0 0.00 0.00 0.00 48 1008.0
20210723154619 66 175 1.0 0.0 0.00 0.00 0.00 50 1008.0
20210723153048 65 186 0.0 0.0 0.00 0.00 0.00 52 1008.0
20210723151536 65 186 0.0 0.0 0.00 0.00 0.00 52 1008.1
20210723150058 64 186 0.0 0.0 0.00 0.00 0.00 55 1007.6
20210723144522 64 186 0.0 0.0 0.00 0.00 0.00 57 1007.5
20210723143033 63 154 0.0 0.0 0.00 0.00 0.00 58 1007.8
20210723141540 62 154 0.0 0.0 0.00 0.00 0.00 59 1007.6
20210723140021 61 154 0.0 0.0 0.00 0.00 0.00 61 1007.6
20210723134524 61 154 0.0 0.0 0.00 0.00 0.00 60 1008.2
20210723133027 61 154 0.0 0.0 0.00 0.00 0.00 60 1008.0
20210723131516 61 154 0.0 0.0 0.00 0.00 0.00 59 1007.6
20210723130008 61 168 0.0 0.0 0.00 0.00 0.00 59 1007.2
20210723124525 61 168 0.0 0.0 0.00 0.00 0.00 59 1006.7
20210723123032 62 168 0.0 0.0 0.00 0.00 0.00 58 1006.7
20210723121527 62 168 0.0 0.0 0.00 0.00 0.00 57 1006.5
20210723120003 62 168 0.0 0.0 0.00 0.00 0.00 56 1005.5
20210723114511 62 168 0.0 0.0 0.00 0.00 0.00 57 1005.4
20210723113000 62 168 0.0 0.0 0.00 0.00 0.00 57 1005.6
20210723111652 63 168 0.0 0.0 0.00 0.00 0.00 57 1005.7
20210723110213 63 168 0.0 0.0 0.00 0.00 0.00 56 1005.1
20210723104808 63 168 0.0 0.0 0.00 0.00 0.00 56 1004.7
20210723103224 63 168 0.0 0.0 0.00 0.00 0.00 55 1004.7
20210723101652 63 168 0.0 0.0 0.00 0.00 0.00 55 1004.5
20210723100346 63 168 0.0 0.0 0.00 0.00 0.00 55 1004.2
20210723094743 64 168 0.0 0.0 0.00 0.00 0.00 53 1004.3
20210723093121 64 168 1.0 0.0 0.00 0.00 0.00 52 1004.4
20210723091603 64 168 1.0 0.0 0.00 0.00 0.00 54 1004.3
20210723090114 64 168 0.0 0.0 0.00 0.00 0.00 53 1004.3
20210723084630 64 168 0.0 0.0 0.00 0.00 0.00 53 1004.6
20210723083037 65 168 0.0 0.0 0.00 0.00 0.00 53 1004.8
20210723081602 65 167 1.0 0.0 0.00 0.00 0.00 53 1004.7
20210723080113 65 155 1.0 0.0 0.00 0.00 0.00 54 1005.1
20210723074534 65 157 1.0 0.0 0.00 0.00 0.00 55 1005.4
20210723073051 65 164 2.0 0.0 0.00 0.00 0.00 55 1005.5
20210723071629 65 179 2.0 0.0 0.00 0.00 0.00 55 1005.5
20210723070023 65 174 2.0 0.0 0.00 0.00 0.00 55 1005.0
20210723064609 65 195 3.0 0.0 0.00 0.00 0.00 54 1004.9
20210723063024 65 178 3.0 0.0 0.00 0.00 0.00 53 1004.8
20210723061522 65 178 3.0 0.0 0.00 0.00 0.00 53 1005.1
20210723060126 65 178 3.0 0.0 0.00 0.00 0.00 52 1005.1
20210723054551 65 182 3.0 0.0 0.00 0.00 0.00 52 1005.3
20210723053059 66 179 3.0 0.0 0.00 0.00 0.00 52 1005.3
20210723051523 66 165 2.0 0.0 0.00 0.00 0.00 52 1005.4
20210723050112 66 165 2.0 0.0 0.00 0.00 0.00 52 1005.4
20210723044557 66 165 2.0 0.0 0.00 0.00 0.00 51 1005.6
20210723043045 66 167 2.0 0.0 0.00 0.00 0.00 51 1005.5
20210723041529 66 171 1.0 0.0 0.00 0.00 0.00 50 1005.5
20210723040017 66 171 2.0 0.0 0.00 0.00 0.00 49 1005.5
20210723034526 66 171 2.0 0.0 0.00 0.00 0.00 49 1005.4
20210723033017 66 171 2.0 0.0 0.00 0.00 0.00 49 1005.2
20210723031515 67 169 3.0 0.0 0.00 0.00 0.00 48 1005.1
20210723030024 67 165 2.0 0.0 0.00 0.00 0.00 47 1005.3
20210723024511 67 179 3.0 0.0 0.00 0.00 0.00 47 1005.1
20210723023022 67 179 2.0 0.0 0.00 0.00 0.00 47 1005.1
20210723021537 67 191 1.0 0.0 0.00 0.00 0.00 48 1004.9
20210723020009 67 223 0.0 0.0 0.00 0.00 0.00 49 1005.2
20210723014558 67 227 0.0 0.0 0.00 0.00 0.00 49 1005.3
20210723013008 68 251 1.0 0.0 0.00 0.00 0.00 49 1005.4
20210723011507 68 205 0.0 0.0 0.00 0.00 0.00 48 1004.9
20210723010018 69 251 2.0 0.0 0.00 0.00 0.00 47 1004.7
20210723004509 71 193 1.0 0.0 0.00 0.00 0.00 45 1004.3
20210723003005 73 198 1.0 0.0 0.00 0.00 0.00 43 1004.3
20210723001508 73 195 0.0 0.0 0.00 0.00 0.00 43 1004.3
20210723000005 74 233 1.0 0.0 0.00 0.00 0.00 41 1004.2
20210722234508 74 196 1.0 0.0 0.00 0.00 0.00 41 1004.3
20210722233012 74 222 1.0 0.0 0.00 0.00 0.00 42 1004.4
20210722231504 74 178 1.0 0.0 0.00 0.00 0.00 42 1004.4
20210722230016 73 140 1.0 0.0 0.00 0.00 0.00 43 1004.3
20210722224502 73 220 2.0 0.0 0.00 0.00 0.00 43 1004.3
20210722223013 74 215 1.0 0.0 0.00 0.00 0.00 42 1004.3
20210722220159 75 109 1.0 0.0 0.00 0.00 0.00 40 1004.4
20210722214814 76 128 1.0 0.0 0.00 0.00 0.00 39 1004.5
20210722214503 76 236 1.0 0.0 0.00 0.00 0.00 40 1004.5
20210722213151 76 240 1.0 0.0 0.00 0.00 0.00 40 1004.6
20210722211740 75 175 2.0 0.0 0.00 0.00 0.00 40 1004.7
20210722210205 74 189 3.0 0.0 0.00 0.00 0.00 43 1005.0
20210722204657 74 240 2.0 0.0 0.00 0.00 0.00 43 1005.1
20210722203132 74 248 2.0 0.0 0.00 0.00 0.00 41 1005.0
20210722201626 74 178 2.0 0.0 0.00 0.00 0.00 42 1004.9
20210722200204 74 104 4.0 0.0 0.00 0.00 0.00 41 1005.0
20210722194650 75 210 3.0 0.0 0.00 0.00 0.00 40 1004.6
20210722193119 75 223 2.0 0.0 0.00 0.00 0.00 39 1004.5
20210722191617 75 248 2.0 0.0 0.00 0.00 0.00 38 1004.7
20210722190119 75 243 1.0 0.0 0.00 0.00 0.00 39 1004.7
20210722184709 74 99 1.0 0.0 0.00 0.00 0.00 40 1004.7